This demonstration page uses our WeatherBlox Daily Observations layout. Learn more.

Left ArrowRight Arrow

Hourly Observations for August 28, 2015

Temp ( °F °C ) Dew Point ( °F °C ) Humidity (%) Winds ( mph kmh ) Pressure ( in mb ) Visibility ( mi km ) Precip ( " mm )
12:53 am 00:53 Clear 55 12.8 54 12.2 96 96 N N/A 30.15 1021 8 13 N/A
1:53 am 01:53 Clear 54 12.2 53 11.7 97 97 N N/A 30.15 1021 7 11 N/A
2:53 am 02:53 Clear 53 11.7 52 11.1 96 96 N N/A 30.15 1021 7 11 N/A
3:53 am 03:53 Clear 52 11.1 51 10.6 97 97 N N/A 30.15 1021 7 11 N/A
4:53 am 04:53 Clear with Mist and Fog 52 11.1 50 10 93 93 N N/A 30.16 1021 2 3 N/A
5:05 am 05:05 Clear with Mist and Fog 52 11.1 50 10 93 93 N N/A 30.18 1022 6 10 N/A
5:18 am 05:18 Partly Cloudy 51 10.6 50 10 96 96 N N/A 30.15 1021 8 13 N/A
5:26 am 05:26 Mostly Cloudy 51 10.6 50 10 96 96 N N/A 30.18 1022 8 13 N/A
5:37 am 05:37 Mostly Cloudy with Mist and Fog 51 10.6 50 10 96 96 N N/A 30.18 1022 2 3 N/A
5:47 am 05:47 Partly Cloudy with Mist and Fog 52 11 50 10 94 94 N N/A 30.18 1022 3 5 N/A
5:53 am 05:53 Partly Cloudy 51 10.6 50 10 96 96 N N/A 30.17 1022 7 11 N/A
6:53 am 06:53 Clear with Mist and Fog 51 10.6 49 9.4 92 92 N N/A 30.19 1022 5 8 N/A
7:53 am 07:53 Sunny with Mist and Fog 54 12.2 52 11.1 93 93 N N/A 30.20 1023 6 10 N/A
8:53 am 08:53 Sunny 61 16.1 57 13.9 87 87 N N/A 30.21 1023 8 13 N/A
9:53 am 09:53 Sunny 67 19.4 59 15 76 76 N N/A 30.21 1023 10 16 N/A
10:53 am 10:53 Sunny 72 22.2 59 15 64 64 E 5 7 30.20 1023 10 16 N/A
11:53 am 11:53 Sunny 75 23.9 57 13.9 54 54 VRB 6 9 30.21 1023 10 16 N/A
12:53 pm 12:53 Sunny 77 25 56 13.3 48 48 ESE 3 6 30.20 1023 10 16 N/A
1:53 pm 13:53 Sunny 79 26.1 56 13.3 45 45 VRB 7 11 30.18 1022 10 16 N/A
2:53 pm 14:53 Sunny 80 26.7 56 13.3 44 44 undefined N/A 30.16 1021 10 16 N/A
3:53 pm 15:53 Sunny 80 26.7 56 13.3 44 44 SE 3 6 30.14 1021 10 16 N/A
4:53 pm 16:53 Sunny 80 26.7 57 13.9 45 45 N N/A 30.13 1020 10 16 N/A
5:53 pm 17:53 Sunny 79 26.1 58 14.4 49 49 E 5 7 30.12 1020 10 16 N/A
6:53 pm 18:53 Sunny 77 25 59 15 54 54 E 6 9 30.11 1020 10 16 N/A
7:53 pm 19:53 Sunny 71 21.7 60 15.6 68 68 E 6 9 30.11 1020 10 16 N/A
8:53 pm 20:53 Clear 65 18.3 60 15.6 84 84 N N/A 30.11 1020 10 16 N/A
9:53 pm 21:53 Clear 62 16.7 59 15 90 90 N N/A 30.13 1020 10 16 N/A
10:53 pm 22:53 Clear 61 16.1 58 14.4 90 90 N N/A 30.14 1021 10 16 N/A
11:53 pm 23:53 Clear 61 16.1 58 14.4 90 90 E 3 6 30.14 1021 10 16 N/A

Powered by AerisWeather